This is the latest recevied weather packets stored in our database for station/object KC1TEM-13. If no packets are shown the sender has not sent any weather packets the latest 10 day(s).
| Time | Temp. | Humidity | Pressure | Rain* | Wind** | Luminosity | Snow |
|---|---|---|---|---|---|---|---|
| 1788480345 | 18.89° C | 96% | 1012.4 hPa | 0 mm | - | 0 W/m² | - |
| 1788480042 | 18.89° C | 96% | 1012.4 hPa | 0 mm | - | 0 W/m² | - |
| 1788479741 | 18.89° C | 95% | 1012.5 hPa | 0 mm | - | 0 W/m² | - |
| 1788479437 | 18.89° C | 95% | 1012.4 hPa | 0 mm | - | 0 W/m² | - |
| 1788479132 | 19.44° C | 95% | 1012.2 hPa | 0 mm | - | 0 W/m² | - |
| 1788478828 | 19.44° C | 95% | 1012.1 hPa | 0 mm | - | 0 W/m² | - |
| 1788478524 | 19.44° C | 95% | 1012.2 hPa | 0 mm | - | 0 W/m² | - |
| 1788478219 | 20° C | 95% | 1012.2 hPa | 0 mm | - | 0 W/m² | - |
| 1788477915 | 20° C | 95% | 1012.3 hPa | 0 mm | - | 0 W/m² | - |
| 1788477615 | 20° C | 95% | 1012.4 hPa | 0 mm | - | 1 W/m² | - |
| 1788477309 | 20° C | 94% | 1012.5 hPa | 0 mm | - | 2 W/m² | - |
| 1788477003 | 20.56° C | 94% | 1012.7 hPa | 0 mm | - | 3 W/m² | - |
| 1788476700 | 20.56° C | 94% | 1012.3 hPa | 0 mm | - | 4 W/m² | - |
| 1788476396 | 20.56° C | 93% | 1012.2 hPa | 0 mm | - | 5 W/m² | - |
| 1788476091 | 20.56° C | 93% | 1012 hPa | 0 mm | - | 8 W/m² | - |
| 1788475787 | 20.56° C | 92% | 1012.3 hPa | 0 mm | - | 11 W/m² | - |
| 1788475483 | 20.56° C | 92% | 1012.5 hPa | 0 mm | - | 15 W/m² | - |
| 1788475179 | 21.11° C | 91% | 1012.2 hPa | 0 mm | - | 18 W/m² | - |
| 1788474878 | 21.11° C | 91% | 1012.5 hPa | 0 mm | - | 26 W/m² | - |
| 1788474577 | 21.11° C | 90% | 1012.8 hPa | 0 mm | - | 28 W/m² | - |
| 1788474272 | 21.67° C | 90% | 1012.6 hPa | 0 mm | - | 28 W/m² | - |
| 1788473971 | 21.67° C | 89% | 1012.7 hPa | 0 mm | - | 32 W/m² | - |
| 1788473666 | 21.67° C | 88% | 1012.4 hPa | 0 mm | - | 29 W/m² | - |
| 1788473364 | 22.22° C | 88% | 1012.8 hPa | 0 mm | - | 33 W/m² | - |
| 1788473064 | 21.67° C | 87% | 1012.6 hPa | 0 mm | - | 71 W/m² | - |
* Rain latest hour (hover to see other rain measurements)
** Current wind speed in m/s (hover to see current wind gust speed)